GFSSE_con_3kmhel_021.txt.gz
Helicity
87 70 63 37 31 36 42 69 77 76 77 64 62 54 51 49 37 32 31 29 26 27 27 25 25 29 29 28 27 25 23 25 22 16 18 44 72 77 73 91 114 71 50
100 58 57 35 32 39 45 61 65 72 70 62 64 52 42 31 35 33 31 24 21 23 19 19 22 26 31 33 34 33 31 21 -1 -26 -34 40 80 89 81 62 70 58 46
73 60 36 39 40 41 36 52 71 70 67 67 62 41 33 30 31 28 16 6 9 14 17 18 21 21 21 18 19 21 17 6 -21 -43 -20 29 123 67 60 49 46 51 58
83 55 30 46 49 40 38 57 71 68 65 62 53 31 31 31 22 12 6 1 5 6 6 11 14 17 18 11 2 -2 -9 -37 -47 -21 23 21 68 63 58 55 48 54 67
52 25 50 44 51 30 40 62 78 74 60 55 39 33 34 20 16 13 7 2 5 7 10 12 17 16 20 19 13 10 -12 -49 -62 -37 52 46 123 61 59 69 54 47 56
68 93 61 54 36 29 41 72 77 69 68 62 45 34 23 10 13 9 1 0 12 15 12 12 11 14 13 12 15 15 7 8 31 17 38 60 49 35 54 61 61 65 64
105 53 16 32 30 36 51 69 83 76 74 63 41 27 12 6 8 2 3 8 9 9 9 7 6 16 16 16 10 2 -8 -16 -10 21 20 90 34 32 37 46 58 70 73
33 11 22 -3 26 42 69 90 81 77 63 45 26 15 13 7 4 3 4 4 1 2 4 3 15 19 23 19 14 3 -13 -18 -5 22 9 80 34 37 41 37 36 42 58
-17 -32 25 32 38 61 79 76 79 58 38 27 15 13 9 12 7 3 0 8 13 11 4 1 1 11 15 7 4 -16 -40 -39 0 0 -12 121 49 46 44 37 33 30 32
32 -21 13 15 15 39 66 84 52 32 25 18 10 12 7 8 8 1 15 26 20 11 3 -3 -2 -5 -15 -3 6 -15 -2 34 -3 -11 70 71 61 45 44 52 46 37 30
37 55 6 9 18 18 35 33 25 18 9 -1 7 6 0 -3 11 29 48 31 25 23 23 19 13 1 -14 25 -1 -2 -2 33 -6 18 81 66 67 53 54 57 62 66 61
39 54 73 102 74 39 16 3 2 3 -12 -7 4 7 2 23 24 21 30 36 36 34 36 32 26 8 12 51 59 37 59 23 9 6 104 88 72 70 84 93 100 109 108
53 46 39 33 15 10 7 -11 -12 -8 -1 11 23 21 43 32 30 16 27 29 37 49 28 38 56 53 92 61 58 47 45 30 50 47 156 155 110 100 111 126 130 130 146
19 36 34 18 -2 23 4 -6 11 16 19 17 31 37 51 30 53 55 39 48 39 52 57 61 63 91 68 47 53 56 65 52 73 48 146 163 140 122 130 139 142 146 146
32 39 12 9 27 20 17 37 48 49 67 60 60 67 84 96 124 97 184 39 48 75 66 74 87 122 94 63 111 102 97 58 76 64 106 156 160 136 140 145 144 143 147
21 25 24 30 36 31 69 84 81 50 40 51 56 94 166 89 101 92 66 37 84 101 122 127 162 89 106 108 111 101 77 50 50 74 107 112 157 149 127 128 137 135 141
6 39 38 63 71 100 143 148 178 152 43 -28 17 42 67 107 51 64 94 58 110 124 115 131 144 141 138 127 123 109 98 90 128 128 119 63 127 136 151 154 126 129 124
26 62 70 76 108 128 169 200 211 52 -85 -92 58 88 64 90 71 79 71 124 135 109 147 173 144 151 107 124 114 116 116 105 101 129 61 70 154 187 151 144 173 124 99
46 83 108 98 184 168 231 205 146 34 14 22 48 64 64 62 73 81 129 148 110 138 150 119 138 102 121 111 101 125 131 83 107 90 94 74 154 119 182 146 183 135 145
61 120 116 135 162 219 179 128 94 46 29 44 35 61 48 75 85 87 120 120 112 126 133 171 120 122 117 102 116 192 79 135 96 72 61 103 151 144 136 199 140 92 234
115 129 165 146 146 144 94 87 95 82 68 67 77 77 73 88 80 89 116 116 126 133 157 113 105 108 114 114 143 124 123 46 62 116 52 108 249 199 184 156 89 199 132
118 159 122 91 90 62 69 90 56 79 81 95 89 76 85 102 139 135 157 162 192 150 128 124 142 134 121 110 159 174 141 139 94 203 261 249 122 159 138 180 214 158 160
132 120 89 74 52 65 160 127 126 122 83 77 87 90 128 156 173 162 160 154 138 125 130 139 141 172 135 161 118 196 182 218 238 153 160 152 182 181 189 170 143 148 160
74 61 74 83 134 103 81 111 93 101 128 200 166 183 127 137 123 124 130 128 134 126 127 129 141 257 139 181 158 156 200 243 254 267 178 117 89 104 102 85 92 90 109
110 114 139 147 129 136 178 169 179 206 175 189 184 154 119 135 158 153 140 153 141 119 129 169 185 179 182 165 208 203 229 215 180 216 236 172 99 65 63 73 81 76 43
150 138 155 152 175 205 258 294 302 255 245 217 162 127 191 201 162 135 143 137 123 126 123 157 195 203 187 184 186 186 184 200 175 176 159 135 94 52 44 66 58 67 64

GFSSE_con_3kmhel_024.txt.gz
Helicity
161 97 79 72 40 37 43 52 61 71 72 69 67 63 40 26 22 25 27 24 18 19 18 18 17 17 19 21 20 14 3 -15 -26 -5 12 32 45 57 81 88 89 42 40
180 113 105 76 41 39 50 59 70 75 73 64 58 46 29 27 31 33 33 23 18 19 18 16 14 13 12 11 9 3 -9 -35 -64 -42 10 34 46 26 65 64 62 51 54
166 119 101 74 46 54 62 61 72 75 64 54 55 44 30 35 38 35 29 23 13 13 11 11 12 9 9 5 -3 -19 -41 -49 -33 -19 1 18 -30 53 78 52 51 59 52
180 109 100 78 59 69 60 62 66 60 55 54 52 42 37 38 37 36 25 11 7 11 14 16 16 18 18 14 7 -12 -34 -31 -17 1 -18 32 25 76 78 57 48 59 49
141 109 96 57 51 51 54 57 70 69 58 60 51 41 38 39 37 31 16 13 16 22 21 14 13 13 12 11 13 10 -3 21 47 -30 54 44 36 30 52 62 60 65 66
183 119 79 32 45 62 63 73 81 76 71 70 56 42 41 41 35 24 21 25 25 27 22 15 14 11 4 7 8 13 24 73 112 45 100 56 10 18 24 31 35 44 51
231 200 85 53 40 52 64 80 86 80 74 71 51 46 48 33 25 20 27 28 27 22 18 9 2 -8 -16 -12 -4 -1 32 57 93 24 85 35 -4 23 24 22 30 29 31
215 178 35 35 39 51 81 91 82 79 75 63 51 48 34 20 15 18 33 31 24 14 10 -0 -8 -26 -33 -24 -13 -27 -9 34 59 22 101 54 16 26 27 27 26 25 21
137 139 79 -10 36 111 105 87 70 73 62 50 37 33 26 11 14 23 25 26 18 10 3 -4 -6 -18 -31 -34 -45 -20 8 -14 14 32 69 33 37 53 43 31 26 27 24
64 -12 -78 17 60 92 70 52 63 48 43 31 19 13 3 4 5 13 24 37 21 12 13 8 -7 -21 -11 -12 -41 -29 28 -43 1 7 27 -13 31 57 51 46 41 38 39
53 -82 -30 15 4 2 36 51 48 27 20 11 6 -8 -11 -15 -0 9 33 39 30 26 18 11 -1 -17 13 27 29 28 35 23 27 57 45 45 72 73 72 61 66 74 70
-82 -14 -14 -35 -31 -29 16 -25 -16 -7 -26 -24 -9 7 -7 25 31 34 30 26 24 25 33 17 1 15 37 71 65 53 59 30 33 71 66 102 106 96 89 92 96 105 115
-16 5 9 4 -5 43 -31 -60 -26 -37 -7 20 9 32 44 28 19 48 59 30 26 17 48 74 68 70 84 79 46 70 59 53 63 75 98 122 118 95 86 86 94 100 116
50 86 65 47 15 21 -25 -11 -0 -6 -3 -32 27 54 37 60 125 88 139 95 131 92 39 61 80 135 167 104 95 89 62 78 59 70 112 121 105 102 86 79 95 111 119
68 60 46 30 60 55 115 123 179 145 104 66 63 77 71 109 122 196 147 58 111 207 111 146 144 123 122 95 97 117 131 97 64 52 94 102 102 92 99 86 102 118 127
80 29 13 29 53 46 126 169 108 67 39 56 42 85 120 128 108 104 83 46 82 112 99 113 143 121 126 130 130 152 164 128 108 121 144 149 110 129 166 169 120 107 115
78 31 23 64 37 137 168 119 150 82 -0 31 5 32 56 113 81 116 83 48 87 92 120 133 151 150 144 116 124 139 107 130 168 133 120 126 149 206 188 186 184 151 61
121 92 80 67 145 197 178 143 125 105 155 -17 -82 -28 46 81 86 61 67 112 88 98 110 114 114 154 145 128 108 84 113 182 130 116 128 127 108 127 129 144 164 137 84
167 150 149 130 198 210 192 169 78 14 14 9 1 -0 58 56 63 84 126 107 80 103 138 172 193 151 127 128 122 119 168 153 177 102 93 106 51 95 169 130 264 239 129
153 253 219 203 183 191 197 133 91 69 37 33 48 60 45 74 79 87 93 91 81 131 178 194 161 134 123 132 121 123 145 146 75 98 134 87 112 201 216 210 179 191 311
216 322 266 282 256 176 171 94 111 87 93 113 142 108 102 68 65 91 188 191 196 213 197 174 162 174 184 146 143 161 180 176 139 108 239 303 321 270 227 187 198 191 202
253 304 283 231 169 73 43 61 76 52 95 186 117 109 120 127 121 167 159 175 221 208 173 174 182 168 183 180 181 164 190 204 139 209 171 210 234 220 193 189 194 180 128
297 283 204 151 67 -3 -9 91 192 292 208 174 121 107 153 147 178 163 182 193 187 161 147 150 155 166 240 228 159 223 221 243 252 226 262 206 169 140 147 144 146 147 122
357 219 117 76 39 139 188 189 156 164 255 294 330 323 191 112 110 140 162 194 177 155 145 147 169 225 237 224 234 230 264 269 318 294 211 224 213 220 186 143 122 111 115
178 75 41 112 228 188 228 258 243 353 342 376 408 343 237 189 253 221 238 219 178 168 176 170 163 213 243 263 285 308 302 264 239 298 332 258 194 124 105 85 73 94 72
239 252 279 279 227 244 287 368 443 479 508 528 452 312 316 168 196 199 196 159 141 140 145 174 199 268 308 323 262 237 298 281 288 300 235 169 136 97 80 62 69 71 71

GFSSE_con_3kmhel_030.txt.gz
Helicity
89 124 108 128 131 102 91 79 73 77 83 79 82 97 87 64 54 47 40 34 30 33 28 32 31 35 45 63 66 55 46 20 8 19 32 32 29 27 35 40 37 33 47
199 157 167 162 148 111 80 78 71 71 68 67 80 84 70 63 59 49 39 30 30 35 35 34 34 36 41 61 68 41 4 -22 -23 0 13 13 31 38 48 42 37 30 39
174 138 156 169 122 101 88 68 66 71 59 67 80 82 68 57 46 37 34 37 39 44 39 35 34 35 37 57 66 50 -5 -22 -36 -25 -8 -35 -28 23 31 44 51 53 50
157 139 145 196 223 135 72 61 55 47 53 67 76 77 58 52 45 44 41 36 31 32 31 29 27 28 37 69 108 101 110 67 -5 -21 -36 -52 -46 7 24 37 46 56 63
223 238 189 253 188 92 71 60 59 48 50 71 65 55 50 46 51 51 41 29 24 22 13 12 25 37 58 94 106 91 55 57 39 6 -26 -33 -59 -11 17 23 29 40 45
271 254 211 170 149 121 80 60 42 39 43 55 58 49 47 54 51 45 29 19 19 12 8 12 17 37 62 97 147 107 40 26 49 15 1 -25 -45 -4 18 29 38 52 56
274 209 176 167 180 101 53 42 32 24 52 68 52 43 43 45 42 32 21 15 10 15 25 21 27 30 31 44 114 92 49 21 1 2 -3 -18 -30 8 22 37 43 43 52
389 181 186 128 103 68 13 18 9 43 59 63 42 33 39 32 34 29 23 15 20 28 33 39 35 27 26 18 50 51 9 35 21 9 -1 -16 9 18 13 34 53 63 72
266 274 116 103 70 67 45 -5 45 47 66 25 11 26 38 27 25 28 24 22 28 39 28 33 34 29 21 12 20 41 25 45 32 2 -8 -23 26 36 40 51 69 76 79
237 238 286 231 163 39 -10 27 21 29 -9 -4 18 14 13 17 26 38 30 22 29 24 21 37 38 37 40 43 36 51 31 22 15 19 -6 -13 39 49 50 66 81 96 108
99 113 10 32 -170 -13 3 3 1 -20 -31 -29 -7 28 34 7 32 43 34 32 52 49 43 74 81 56 57 69 59 54 46 8 23 6 -6 35 68 74 64 66 83 101 110
-4 61 -122 -174 -85 -25 11 -27 -31 -20 -23 -16 -6 5 5 23 63 52 69 93 78 77 83 66 60 83 116 73 74 73 46 45 33 29 18 47 66 72 73 65 62 85 99
-138 -55 -57 -26 0 0 -35 -20 -27 -35 -30 -37 -17 -4 45 70 68 64 69 74 87 117 98 160 177 155 132 114 127 106 106 99 97 84 57 73 83 91 81 78 82 84 87
-165 -61 -135 -36 -12 -15 14 -10 -28 -13 18 37 -3 6 43 77 107 110 122 133 151 156 182 181 170 140 150 169 154 164 152 130 117 108 105 110 92 90 93 102 99 112 107
-89 -63 -65 -62 -2 -16 -14 -33 -19 28 81 68 76 87 80 106 127 122 137 136 153 154 157 158 145 157 183 170 176 181 169 151 150 142 139 100 105 95 112 143 135 136 129
-32 -45 -39 -10 4 27 14 15 41 56 74 64 93 109 120 125 103 119 148 147 143 112 124 152 157 142 135 149 165 157 129 139 152 156 140 146 93 96 130 131 150 138 136
-6 -3 3 39 50 62 56 66 77 86 105 108 117 117 134 126 129 120 135 161 158 137 146 134 134 143 153 139 136 118 128 150 141 152 134 127 113 119 160 161 158 157 158
25 27 78 105 113 134 133 127 121 123 143 123 117 101 115 156 153 125 170 155 144 138 120 115 113 107 93 99 109 120 114 109 147 138 150 167 192 169 164 201 247 200 192
52 80 137 151 179 179 163 166 140 117 123 90 64 70 140 177 176 172 163 138 141 134 120 91 98 76 68 93 96 94 79 127 142 160 188 175 213 224 189 293 300 283 240
61 123 159 152 184 183 180 180 173 155 104 42 40 119 155 154 150 173 142 139 126 104 99 92 98 105 96 88 78 93 83 114 181 189 168 176 184 225 307 321 271 235 226
84 184 173 188 172 244 233 235 210 158 130 124 123 131 165 166 159 146 133 126 115 72 91 96 100 102 89 99 94 97 88 148 156 170 154 148 180 205 239 249 237 197 186
206 188 177 167 194 233 235 253 205 170 129 127 146 163 179 176 144 146 135 93 78 114 124 136 151 135 113 109 116 96 94 118 115 130 128 146 179 174 193 183 174 179 161
306 269 209 202 197 214 218 278 283 265 264 235 218 203 154 177 190 190 155 132 194 194 168 159 122 121 120 117 134 151 146 130 122 72 106 127 167 154 144 148 174 187 161
398 362 253 241 191 185 237 283 334 319 286 208 242 211 225 222 202 197 236 227 265 229 215 174 163 145 155 133 158 161 158 165 132 140 137 173 187 171 162 137 119 97 105
449 399 320 246 182 199 219 206 277 279 241 263 299 331 330 291 285 283 236 313 273 218 202 209 184 186 177 187 188 181 173 174 185 202 170 162 202 154 147 137 119 106 107
299 319 309 214 168 129 163 189 246 300 366 436 433 429 348 333 316 280 264 270 242 208 208 189 183 168 164 172 179 179 202 210 212 214 212 169 200 182 158 122 112 96 106

GFSSE_con_3kmhel_036.txt.gz
Helicity
209 183 148 150 164 161 145 119 99 82 89 95 109 110 92 73 77 67 66 67 58 55 50 34 15 8 11 11 11 16 42 46 29 29 32 37 35 40 46 49 51 40 59
285 208 207 180 169 169 148 127 109 97 100 105 104 88 70 62 55 55 56 56 52 50 47 48 33 18 5 -0 -1 -1 22 22 14 10 8 19 33 32 35 38 38 44 65
265 237 214 190 164 155 150 150 135 130 113 102 83 80 61 54 52 53 51 54 64 81 86 80 54 51 50 24 3 4 19 19 11 3 -1 -30 -17 27 30 35 39 49 61
270 233 184 162 182 172 157 134 123 108 118 99 69 77 59 53 45 52 54 77 96 92 84 71 61 60 66 50 24 19 24 17 10 -0 -29 -32 -20 29 35 43 50 58 61
225 221 188 165 170 174 169 156 116 74 105 74 64 66 69 56 54 65 73 81 81 76 65 64 47 32 30 33 42 44 43 36 18 -2 -22 -28 -30 25 37 45 52 67 70
187 206 166 151 147 132 111 121 79 110 85 67 76 58 67 51 54 51 64 66 64 35 39 48 58 36 23 39 49 54 56 42 21 -7 -16 -16 -21 28 37 40 49 59 72
201 143 163 151 132 136 96 79 90 82 72 64 64 56 49 43 47 59 47 45 19 29 30 46 49 40 23 25 36 44 40 31 -6 -2 -6 -10 -9 28 30 32 47 69 82
214 226 196 206 157 166 120 130 75 74 49 49 57 62 50 47 48 41 49 34 45 46 65 54 71 58 36 16 16 20 28 31 21 18 5 -8 34 47 43 45 55 63 79
298 322 318 301 278 195 61 57 30 9 27 46 48 68 53 49 43 48 50 45 51 65 62 83 54 53 32 8 11 24 36 35 18 4 4 2 52 61 61 58 62 65 73
447 381 372 208 286 170 53 30 -0 19 -15 57 104 69 41 36 56 68 50 54 46 42 69 90 95 87 51 56 61 59 50 45 18 5 -9 -5 42 49 61 62 63 62 73
207 288 390 264 276 46 63 18 -23 -16 57 105 74 29 59 75 66 58 60 51 60 60 77 86 110 105 96 100 78 66 68 36 26 16 4 20 42 59 67 59 41 34 44
244 182 123 344 184 77 49 -38 -48 52 44 75 61 57 65 67 64 75 76 79 65 78 92 115 125 129 96 74 76 94 70 53 47 33 38 49 51 81 83 66 55 50 63
171 111 347 185 233 83 -86 -23 42 77 81 82 22 42 85 84 75 77 67 67 72 109 114 124 127 118 126 120 122 107 93 93 78 78 74 93 105 112 118 86 64 62 67
60 3 -59 -79 -299 -205 -32 38 59 39 34 33 65 65 14 55 88 81 72 87 102 96 141 157 166 151 154 141 127 116 115 108 102 123 141 151 123 124 136 125 113 94 90
-79 -190 -255 -200 -148 -13 -16 -11 -9 -2 31 42 -14 -15 30 52 71 95 111 120 129 132 160 185 172 154 147 135 140 147 156 151 148 143 140 158 147 132 121 144 170 136 116
-7 -65 -40 -22 -24 -21 -19 -19 -24 -26 -23 -12 16 10 52 63 100 130 149 158 175 166 185 169 151 145 129 124 138 157 156 165 180 176 146 132 165 176 146 170 198 178 155
-21 37 17 -4 4 21 25 17 -15 -11 -16 14 43 44 63 80 107 151 179 190 172 180 188 158 145 122 117 110 145 160 160 183 187 169 145 127 142 239 271 245 182 174 161
10 28 42 24 29 19 -15 -26 -22 8 10 35 63 70 81 109 142 194 210 194 167 170 144 126 120 129 120 116 108 115 115 111 125 134 130 120 115 159 220 246 206 195 186
49 41 38 23 19 -7 -36 -19 -19 19 26 71 71 77 115 146 186 222 209 183 162 145 133 127 126 99 95 89 85 77 84 84 111 120 128 135 127 139 145 174 183 195 174
10 12 1 -0 -5 -8 3 18 24 57 69 79 85 99 128 183 214 224 208 179 154 155 140 131 111 103 48 23 28 63 83 99 113 125 126 103 129 155 154 169 175 186 235
-12 -19 -6 22 34 76 70 83 90 120 125 112 90 110 151 192 201 197 190 180 158 159 150 119 99 69 6 8 39 67 60 60 112 125 103 93 107 113 136 142 144 151 159
54 24 -2 24 79 104 143 163 146 166 129 135 155 169 168 172 172 184 188 183 183 180 175 151 75 -9 8 7 29 58 102 52 78 98 106 96 95 116 156 159 151 147 143
93 98 76 66 98 144 180 256 241 276 225 239 252 221 181 170 211 213 219 219 216 174 152 124 70 10 -11 50 72 133 167 121 142 113 110 128 139 97 121 122 147 130 124
39 51 118 129 120 161 213 262 312 306 315 276 279 225 230 222 255 236 232 226 215 182 146 93 18 -19 -68 165 121 218 164 163 192 205 191 188 191 158 166 165 154 135 136
122 121 139 190 145 182 226 261 328 308 336 330 308 309 288 283 278 252 245 239 220 161 107 111 112 86 162 202 184 200 228 215 229 255 241 215 184 144 149 154 162 161 190
175 216 213 204 147 198 225 296 363 393 361 344 359 362 309 320 296 279 283 250 195 175 118 105 166 102 164 197 200 186 219 241 253 291 302 248 237 197 183 169 155 194 185

GFSSE_con_3kmhel_042.txt.gz
Helicity
109 173 136 124 131 164 176 192 192 193 190 180 171 151 105 77 55 47 30 20 18 23 35 32 23 30 43 48 47 45 39 31 29 32 37 51 51 50 60 101 65 57 59
156 162 149 149 149 150 184 192 189 180 183 171 153 127 90 66 52 47 17 7 7 5 -1 -3 7 33 43 40 28 19 19 10 -17 -21 6 22 48 50 52 59 67 47 57
194 157 139 160 162 159 171 179 177 177 170 147 133 103 93 68 43 27 14 -1 -3 -15 -17 -6 4 16 20 17 16 16 19 3 -21 -32 -19 15 26 39 46 54 50 52 55
196 186 113 178 177 166 179 177 172 154 141 132 131 92 96 59 42 24 21 10 1 -10 -12 -3 9 19 23 17 10 8 6 -27 -44 -28 12 14 14 28 29 33 45 63 44
186 157 171 175 185 169 167 163 149 137 123 127 111 90 93 56 44 40 18 6 1 4 11 17 20 26 26 19 12 4 -11 -46 -52 5 22 19 13 20 40 59 47 59 71
165 194 214 175 147 149 147 145 133 120 132 126 92 96 79 54 52 40 13 14 9 6 15 27 31 32 20 19 16 6 -29 -48 -48 12 13 13 20 25 37 50 56 59 69
199 246 195 180 145 127 131 123 120 117 124 119 91 99 96 67 40 34 16 26 23 15 12 20 26 32 28 16 12 8 -22 -26 2 5 16 18 25 38 44 50 63 74 81
255 214 294 206 160 116 116 106 123 110 134 113 111 85 97 57 49 25 26 31 34 28 18 26 38 39 32 24 38 -2 -22 -62 2 10 27 29 29 43 48 50 55 68 86
198 284 314 300 237 163 131 121 163 112 142 138 115 75 93 63 44 39 38 39 33 45 50 53 52 48 52 53 25 6 -1 -31 9 9 23 43 35 42 51 58 60 69 81
323 424 488 460 368 328 137 123 133 106 116 138 119 89 88 80 51 56 32 34 43 48 58 65 67 75 73 45 25 13 -10 -48 10 8 42 51 43 52 58 61 65 67 72
407 492 573 573 400 182 152 40 113 94 113 138 75 61 78 31 32 8 74 44 49 62 78 97 94 85 68 47 31 -3 -42 9 8 14 57 39 58 76 72 71 65 59 66
387 576 611 558 612 311 87 49 78 54 77 61 15 78 42 44 34 51 55 66 73 97 102 95 77 41 -3 21 20 -3 18 12 24 25 72 45 45 81 93 84 77 69 71
471 824 813 973 533 202 307 20 20 40 85 64 60 36 42 56 48 37 47 32 49 45 48 52 33 42 41 25 32 23 25 23 33 33 94 60 61 61 93 100 90 84 86
166 183 314 304 332 433 407 261 61 86 10 30 30 34 68 65 46 39 33 48 43 35 62 51 66 66 55 51 50 48 47 31 49 55 114 100 88 81 86 106 108 109 111
153 319 259 285 294 353 408 141 258 42 70 71 27 56 58 62 52 39 56 57 69 72 71 68 69 63 62 62 59 53 52 52 50 56 79 106 89 73 70 78 131 132 125
155 231 162 41 19 53 -88 -50 -3 49 57 24 29 66 65 62 53 58 61 75 90 80 79 61 64 67 74 66 64 63 54 50 59 53 61 105 99 111 86 70 120 154 144
-33 -50 -112 -109 -78 -101 6 -9 8 1 14 22 43 55 58 46 49 58 77 95 95 91 90 90 80 88 84 75 75 65 46 49 60 53 52 70 99 123 140 145 154 174 154
-42 -14 28 19 9 16 -15 -13 -2 -6 -0 38 49 55 52 35 46 66 87 96 98 93 86 86 90 101 103 96 84 69 31 30 51 52 64 60 87 63 110 160 204 194 209
15 27 26 11 30 17 -8 -18 -4 -14 -51 -12 39 36 38 53 61 73 93 108 107 110 112 108 118 127 122 95 77 61 43 15 22 77 63 73 97 83 87 149 152 183 184
26 26 38 19 16 13 -5 -14 -51 -69 -53 10 11 30 35 54 63 82 100 124 123 137 135 139 151 138 124 115 97 85 61 23 30 60 96 79 102 94 71 72 83 119 169
34 33 41 31 19 2 -21 -36 -41 -34 -23 -8 17 29 45 42 60 77 105 137 140 135 154 162 154 136 133 123 93 51 51 34 69 53 91 104 136 92 100 68 51 103 133
44 37 31 43 31 7 -28 -33 -35 -20 -4 14 27 34 41 58 82 101 120 136 140 174 178 173 160 166 165 138 115 76 48 125 58 107 105 120 130 102 92 86 101 114 124
43 48 28 13 -3 -8 -18 -11 -16 2 31 42 47 75 83 101 96 113 125 148 166 172 193 192 182 177 176 150 80 107 146 75 172 204 163 112 154 106 134 115 107 87 91
14 9 8 4 2 1 6 21 30 38 38 57 69 83 100 121 120 142 160 179 183 205 202 181 187 201 194 146 165 76 53 138 157 175 205 98 154 132 149 109 78 92 109
14 25 32 30 25 22 28 24 35 28 35 70 101 130 146 159 178 187 187 198 191 202 209 205 237 189 182 148 94 105 81 117 124 162 146 176 193 165 148 120 127 121 108
21 37 47 55 56 52 65 29 28 35 45 145 132 178 191 198 195 222 217 220 189 207 225 241 213 178 162 86 73 105 125 151 130 141 140 139 192 143 148 125 105 118 142

GFSSE_con_3kmhel_045.txt.gz
Helicity
87 124 136 165 169 146 137 149 146 146 141 135 123 98 69 67 49 35 32 30 22 17 28 27 33 33 33 33 32 22 3 1 1 5 30 53 59 68 86 135 51 54 59
163 130 143 167 172 152 150 163 156 142 139 135 117 84 72 60 39 28 23 16 11 12 16 20 23 27 30 29 24 7 -6 -23 -17 -6 -40 29 53 52 52 50 60 54 78
158 148 134 164 174 156 153 168 158 146 143 124 107 78 62 51 32 24 15 5 -1 7 13 15 14 16 11 6 -8 -28 -54 -69 -85 -74 -8 9 20 36 42 53 38 52 73
152 126 154 161 170 163 162 159 145 141 126 119 105 69 47 43 33 24 11 -8 -8 -7 1 8 12 10 6 -5 -23 -44 -49 -34 -16 -37 18 17 16 43 40 42 57 68 42
86 99 189 181 171 164 156 151 153 128 114 108 97 71 29 47 50 27 9 -0 -3 -4 6 12 14 11 3 -13 -34 -52 -63 -91 -102 17 30 24 11 24 45 66 51 74 84
182 216 164 248 176 162 168 156 135 122 119 105 83 71 47 59 61 35 24 25 18 17 19 15 16 11 -2 -16 -32 -44 -43 -40 -67 25 17 18 19 28 38 40 48 58 74
126 229 198 162 162 178 154 131 119 137 122 97 99 84 70 61 66 53 46 26 26 28 24 19 13 8 1 -6 -7 -23 -13 49 3 41 30 19 17 32 37 40 46 55 65
256 294 246 176 172 171 152 133 148 127 112 113 107 90 66 67 74 56 46 33 32 34 29 25 23 20 13 7 -15 -21 -32 -21 6 32 45 30 21 35 44 47 48 59 73
305 420 381 116 204 210 199 193 191 122 115 121 110 102 96 88 81 58 46 46 46 49 44 31 34 25 19 2 -8 -9 -40 -25 -10 11 46 48 30 35 40 38 43 55 77
342 567 638 340 164 188 199 172 142 130 130 144 125 134 99 80 65 49 53 64 61 55 47 42 34 31 16 9 -7 -38 -64 -77 -8 13 63 30 31 40 47 54 51 57 68
412 436 480 562 336 298 177 179 106 103 144 114 79 48 45 40 39 -3 69 59 67 60 57 51 35 34 35 18 -20 -44 -35 -5 -4 11 84 40 35 59 60 58 55 55 60
392 433 527 609 607 757 777 204 48 45 79 77 71 6 9 82 -2 27 52 68 72 68 60 36 19 11 -16 18 10 -10 11 -8 24 39 96 80 47 65 85 74 64 63 67
402 431 434 521 567 442 339 222 3 51 58 88 12 13 63 83 50 22 39 35 31 36 27 26 -0 -2 34 39 31 19 13 12 26 56 97 98 76 68 90 94 82 77 73
448 528 559 588 571 353 326 176 71 35 62 49 40 48 43 27 22 24 10 28 24 3 43 22 31 56 49 52 39 28 22 20 42 64 93 99 75 71 80 101 106 98 90
255 365 680 639 628 443 197 177 204 -7 85 27 41 64 51 49 23 8 29 36 28 62 47 53 64 58 54 47 34 34 39 42 37 34 101 94 87 74 73 83 116 116 114
169 245 298 317 247 204 313 297 123 103 -27 -46 34 47 45 41 36 39 42 51 62 57 65 71 72 62 49 55 52 53 52 31 33 13 45 118 96 103 97 69 118 132 136
127 197 259 150 76 111 247 497 302 -28 -32 22 12 -34 63 38 20 44 46 62 63 81 88 89 82 65 61 72 74 69 52 38 37 28 39 83 149 124 160 177 163 150 160
64 47 -31 -90 -92 -128 -129 -102 -2 24 -8 -47 -48 -46 -30 -21 37 52 50 58 91 106 98 80 52 68 92 83 96 85 84 63 69 45 53 68 80 129 204 216 212 211 226
-24 -12 -56 -106 -117 -0 -9 5 -3 -21 -25 -28 -37 -40 25 7 34 33 25 76 93 88 89 85 89 87 123 97 101 100 103 71 87 83 121 119 109 116 177 211 159 154 189
60 69 29 -1 14 6 -8 -8 -13 -22 -29 -28 -18 10 30 35 45 29 57 92 70 80 89 90 107 107 127 142 118 140 132 119 94 99 112 66 105 121 99 119 119 108 160
48 52 46 10 -3 -15 -12 -27 -37 -37 -37 -30 7 23 37 29 41 34 57 87 63 93 107 132 131 145 149 150 112 99 93 179 135 94 125 104 116 109 126 108 98 87 163
60 39 43 43 36 13 -13 -30 -26 -20 -10 1 27 38 40 44 37 53 74 109 81 118 146 145 135 149 155 134 135 127 130 165 178 149 112 116 112 102 129 117 128 129 145
63 56 39 33 19 1 -8 -17 -26 -35 -17 2 23 42 41 30 51 75 101 122 113 116 148 140 134 138 136 157 131 176 152 144 166 178 234 162 144 169 137 131 121 124 112
23 22 23 24 21 4 -20 -24 4 -2 3 29 59 47 55 57 73 84 128 136 166 134 131 137 127 140 151 215 227 147 111 125 161 166 183 205 154 115 120 141 152 146 132
38 34 32 18 17 26 37 -15 23 -5 -4 18 41 76 83 94 111 131 164 173 170 133 154 157 167 150 188 230 171 127 106 87 109 108 139 149 166 151 163 216 224 193 134
49 51 57 38 39 32 53 47 19 55 16 -13 89 104 80 96 112 162 179 167 154 192 201 165 201 233 225 227 193 125 152 148 146 160 160 154 186 174 171 232 203 151 149

GFSSE_con_3kmhel_048.txt.gz
Helicity
93 146 166 174 165 163 161 153 117 95 88 85 92 81 68 64 55 44 36 37 44 43 42 39 45 43 41 30 17 -5 -23 -26 -20 7 44 60 66 67 78 79 57 63 76
145 98 158 148 153 151 147 138 118 95 88 92 101 85 63 62 54 44 43 37 36 37 36 32 28 24 10 -12 -29 -33 -39 -54 -77 -63 -1 42 48 49 46 47 50 52 79
74 45 100 136 154 148 146 125 109 90 87 98 102 79 67 61 54 51 42 31 33 27 20 16 11 6 -2 -16 -27 -25 -12 -11 -58 -82 -17 -23 2 35 40 44 34 61 71
-5 45 97 150 162 143 139 122 97 80 87 97 92 78 69 56 50 38 24 18 26 12 15 9 10 7 -14 -40 -38 -13 12 60 17 103 18 0 9 40 35 46 60 55 59
84 99 78 123 141 158 140 110 91 88 92 96 85 82 74 56 45 34 17 11 9 8 13 15 9 -10 -24 -40 -29 -18 -6 -1 -22 37 58 9 -12 21 41 44 41 52 59
173 110 225 105 115 138 117 106 102 97 101 99 87 96 78 62 45 26 11 3 9 13 12 8 0 -14 -28 -37 -24 -13 18 -24 -8 13 5 12 0 29 38 42 41 49 56
254 233 252 189 89 121 111 123 116 112 119 116 98 108 90 74 55 36 28 22 25 11 6 3 -3 -10 -15 -11 -6 27 95 100 21 26 5 -7 -1 38 43 44 48 57 64
239 224 232 271 180 134 120 131 134 132 128 124 108 118 97 81 78 79 56 43 29 15 6 0 -2 -5 -5 6 -3 20 44 77 35 28 29 -14 21 38 44 47 51 59 73
284 261 254 239 214 211 186 159 149 161 146 120 127 116 114 80 76 64 52 41 26 18 13 11 6 -3 -4 -1 4 12 46 38 1 81 78 -1 29 31 36 42 51 57 76
343 401 425 406 261 158 139 194 207 188 200 148 102 99 96 66 75 67 52 38 30 28 17 12 4 1 -9 -16 -11 0 45 60 29 103 48 -3 42 51 54 55 57 63 69
357 446 464 436 321 282 227 108 134 143 131 97 74 82 58 57 55 69 56 45 37 28 18 10 10 1 -21 -20 -13 -2 11 19 58 38 36 42 57 66 65 60 56 54 54
344 381 367 419 331 360 462 173 106 102 70 64 21 56 63 64 44 84 67 59 43 34 16 5 3 -5 -9 -38 -21 -12 17 24 40 51 39 85 52 70 83 76 67 64 67
334 465 491 438 391 425 524 330 110 90 94 1 -14 63 59 70 44 97 58 36 25 19 2 -21 -21 -18 -6 48 40 47 17 32 57 83 60 90 79 69 92 92 87 87 80
348 348 388 420 363 469 417 283 265 393 -32 -8 18 66 17 49 27 54 5 13 4 -4 28 -7 -7 43 50 58 43 31 27 29 46 65 47 61 86 100 92 102 100 104 97
351 411 474 570 740 869 846 506 103 -3 52 145 108 40 5 -38 22 23 -20 16 4 10 28 37 70 45 60 56 50 46 28 30 19 53 40 81 113 115 99 97 139 134 128
338 463 571 691 870 781 322 197 160 218 309 154 -12 -41 -72 18 53 -16 27 28 45 90 62 74 53 63 30 62 64 51 43 53 58 57 83 101 109 116 85 93 118 154 147
219 306 367 328 329 330 163 153 206 204 -8 -32 -86 -52 26 81 2 29 59 54 89 75 89 63 105 63 88 59 87 58 65 66 76 70 81 143 146 139 122 154 154 163 166
175 265 287 325 193 231 58 55 -51 -129 -89 -125 13 7 -4 10 -9 -1 65 76 73 108 116 131 100 104 58 69 116 85 105 99 127 85 67 128 224 192 164 190 212 236 240
-1 26 -18 17 78 44 -26 164 -181 -91 -60 -58 -46 -37 -30 -38 -36 -15 60 35 133 130 97 103 74 84 88 120 121 118 136 112 140 82 158 174 124 213 218 179 152 164 165
-55 -81 -80 -119 -101 -118 -72 -36 -26 26 27 -27 11 -19 -19 -28 -10 15 13 72 128 98 106 122 130 118 139 118 86 181 173 156 131 132 168 148 164 168 128 200 145 135 147
28 2 -12 -55 -101 -132 -133 -64 -40 -31 -26 -47 -48 -33 33 37 50 55 32 132 124 94 116 143 152 189 142 201 156 117 129 181 184 190 166 158 124 192 125 147 127 143 204
79 16 13 -5 -31 -51 -49 -49 -49 -16 -29 -46 -58 -11 74 46 94 77 43 147 128 96 153 197 213 196 138 184 158 170 165 177 212 147 154 189 172 149 167 139 144 144 178
118 50 7 50 30 -7 -10 -43 -50 -10 -18 -37 -18 54 123 112 73 68 60 134 165 110 196 246 212 161 162 228 170 212 214 172 171 174 165 179 223 210 192 138 187 198 173
118 107 54 83 55 35 22 -28 -19 14 5 28 13 84 96 75 69 49 103 129 200 197 223 279 212 160 164 238 257 194 165 216 214 219 185 166 207 257 201 170 135 214 245
118 189 106 104 90 58 8 -7 -23 49 13 13 99 108 232 165 108 77 120 174 217 267 244 239 214 183 198 285 340 289 194 195 183 211 161 166 190 214 163 156 214 299 332
94 149 146 90 107 112 138 25 -14 -3 44 5 122 199 229 146 127 158 125 192 252 277 208 241 283 306 348 302 260 201 209 272 271 224 356 266 249 242 221 192 304 302 261